User: anonymous   Login
Location: Cimarron National Grasslands
(37.1250°N, 101.7500°W)
Time: 14:17:03
(UTC-05:00)
Language:

Ariane Rocket - Orbit

View from above orbital plane
View from above orbital plane
View from above satellite
View from above satellite

Ground track
Ground track

The orbit data is extracted from the following two-line orbital elements,

1 23561U 95021B   18170.97223156 +.00000016 +00000-0 +20672-4 0  9994
2 23561 098.7911 185.7150 0005780 247.3907 167.8254 14.37876843213889
Epoch (UTC): 19 June 2018 23:20:00
Eccentricity: 0.0005780
inclination: 98.7911°
perigee height: 761 km
apogee height: 769 km
right ascension of ascending node: 185.7150°
argument of perigee: 247.3907°
revolutions per day: 14.37876843
mean anomaly at epoch: 167.8254°
orbit number at epoch: 21388

The dashed part of the orbit path shows where the satellite is in the earth's shadow,  

DLR